Total_Precipitation_Accumulation
2.82 2.90 2.94 3.02 2.83 2.75 2.69 2.38 2.07 2.14 2.22 2.16 1.89 1.84 1.89 1.90 2.02 2.25 2.52 2.44 2.27 2.42 2.75 3.00 3.16 3.19 3.15 3.18 3.19 3.17 3.04 2.99 2.93 2.77 2.49 2.26 2.11 2.06 2.11 2.23 2.23 2.14 2.07
3.12 3.16 3.21 3.21 3.03 3.01 2.94 2.66 2.45 2.56 2.50 2.43 2.17 2.05 2.03 2.09 2.14 2.29 2.52 2.52 2.18 2.05 2.32 2.77 3.09 3.29 3.37 3.41 3.30 3.18 3.15 3.07 3.04 2.87 2.65 2.42 2.24 2.15 2.10 2.12 2.19 2.16 2.07
3.33 3.41 3.48 3.38 3.16 3.08 3.08 3.00 2.86 2.80 2.70 2.49 2.36 2.34 2.29 2.15 2.10 2.31 2.47 2.48 2.31 2.17 2.27 2.44 2.68 2.98 3.39 3.61 3.53 3.40 3.31 3.24 3.13 2.96 2.82 2.63 2.41 2.25 2.14 2.09 2.09 2.10 2.07
3.24 3.52 3.60 3.42 3.21 3.09 3.20 3.32 3.16 3.05 3.00 2.91 2.65 2.42 2.32 2.29 2.19 2.22 2.22 2.28 2.43 2.33 2.38 2.34 2.44 2.63 2.97 3.31 3.57 3.65 3.55 3.41 3.28 3.13 3.01 2.86 2.71 2.46 2.25 2.20 2.14 2.09 2.07
3.36 3.58 3.69 3.69 3.41 3.36 3.45 3.31 3.48 3.33 3.29 3.09 2.68 2.51 2.25 2.10 2.15 2.10 2.15 2.14 2.19 2.24 2.29 2.30 2.36 2.44 2.67 2.98 3.25 3.47 3.55 3.51 3.30 3.08 3.03 3.02 2.88 2.65 2.47 2.38 2.26 2.16 2.09
3.52 3.71 3.71 3.78 3.66 3.69 3.87 3.81 3.81 3.62 3.32 3.11 2.70 2.49 2.24 1.99 1.92 1.95 1.92 1.93 1.93 1.92 2.00 2.06 2.20 2.19 2.33 2.56 2.95 3.26 3.69 3.80 3.55 3.34 3.24 3.10 2.92 2.67 2.49 2.45 2.39 2.31 2.22
4.11 4.29 4.09 4.04 3.86 3.80 3.87 3.86 3.73 3.64 3.43 3.35 3.24 2.87 2.39 1.98 1.82 1.68 1.72 1.79 1.75 1.71 1.80 1.94 1.98 1.99 2.04 2.12 2.33 2.71 3.37 3.71 3.65 3.51 3.47 3.30 3.04 2.81 2.62 2.55 2.53 2.50 2.39
4.75 4.62 4.52 4.24 4.03 3.92 3.78 3.69 3.60 3.50 3.27 3.27 3.31 3.20 2.76 2.39 1.93 1.53 1.65 1.70 1.68 1.74 1.75 1.68 1.71 1.71 1.69 1.83 1.95 2.27 2.70 2.99 3.34 3.57 3.62 3.35 3.14 2.99 2.87 2.74 2.67 2.62 2.58
4.60 4.45 4.36 4.17 4.03 3.87 3.69 3.64 3.58 3.50 3.35 3.30 3.30 3.40 3.19 2.67 2.14 1.77 1.63 1.64 1.70 1.76 1.74 1.68 1.62 1.60 1.62 1.71 1.78 2.01 2.32 2.44 2.77 3.12 3.41 3.25 3.11 3.13 3.09 3.03 2.97 2.92 2.85
4.28 4.13 4.16 4.08 3.93 3.73 3.56 3.29 3.27 3.36 3.47 3.28 3.15 2.94 2.78 2.55 2.41 2.14 1.88 1.77 1.72 1.68 1.68 1.64 1.55 1.59 1.65 1.78 1.93 1.97 2.05 2.10 2.28 2.54 2.73 2.79 2.82 2.94 3.05 2.98 3.02 3.10 3.10
3.97 3.72 3.70 3.65 3.46 3.26 3.14 2.99 2.93 2.99 3.09 3.05 3.01 2.89 2.77 2.59 2.37 2.28 2.09 1.92 1.85 1.72 1.64 1.65 1.64 1.65 1.70 1.74 1.82 1.87 1.92 1.93 2.02 2.13 2.22 2.33 2.48 2.68 2.84 2.92 3.01 3.14 3.29
3.76 3.47 3.17 3.11 3.05 2.87 2.64 2.57 2.56 2.55 2.64 2.71 2.77 2.71 2.55 2.47 2.41 2.41 2.25 2.07 1.99 1.87 1.76 1.74 1.70 1.65 1.69 1.63 1.57 1.74 1.71 1.71 1.76 1.86 1.94 1.99 2.09 2.27 2.42 2.60 2.86 3.06 3.19
3.25 3.01 2.80 2.68 2.58 2.49 2.36 2.28 2.29 2.17 2.14 2.21 2.23 2.35 2.36 2.27 2.16 2.24 2.31 2.20 2.01 1.89 1.81 1.73 1.62 1.55 1.51 1.57 1.63 1.64 1.50 1.47 1.42 1.46 1.55 1.68 1.83 1.97 2.02 2.15 2.32 2.57 2.79
2.73 2.52 2.44 2.26 2.03 1.88 1.82 1.87 1.93 1.89 1.87 1.86 1.84 2.03 2.12 2.10 2.05 2.05 2.09 2.26 2.21 2.00 1.89 1.74 1.61 1.55 1.51 1.51 1.60 1.46 1.36 1.34 1.28 1.30 1.34 1.41 1.56 1.76 1.84 1.82 1.79 1.85 2.00
2.15 2.06 1.98 1.92 1.82 1.70 1.62 1.60 1.66 1.74 1.74 1.68 1.68 1.79 1.82 1.79 1.80 1.85 1.93 2.09 2.29 2.20 2.01 1.79 1.74 1.68 1.64 1.61 1.70 1.44 1.41 1.38 1.33 1.35 1.36 1.39 1.48 1.67 1.75 1.72 1.60 1.50 1.47
1.86 1.72 1.64 1.60 1.60 1.56 1.53 1.59 1.58 1.62 1.69 1.61 1.56 1.54 1.53 1.48 1.56 1.59 1.69 1.81 2.00 2.15 2.03 1.68 1.63 1.67 1.69 1.58 1.76 1.56 1.50 1.48 1.41 1.56 1.67 1.63 1.62 1.80 1.94 1.95 1.77 1.60 1.53
1.63 1.52 1.43 1.38 1.35 1.38 1.37 1.42 1.40 1.36 1.34 1.31 1.25 1.23 1.26 1.33 1.44 1.45 1.48 1.61 1.83 2.04 2.10 1.72 1.58 1.68 1.83 1.78 1.82 1.73 1.61 1.61 1.60 1.92 2.07 2.26 2.04 1.95 2.03 2.06 1.99 1.76 1.59
1.44 1.38 1.26 1.20 1.16 1.13 1.12 1.12 1.15 1.17 1.17 1.12 1.14 1.19 1.20 1.23 1.31 1.38 1.45 1.51 1.67 1.93 2.09 1.99 1.76 1.79 1.86 1.83 1.90 1.85 1.65 1.56 1.60 2.02 2.25 2.53 2.47 2.21 2.21 2.10 2.00 1.81 1.65
1.29 1.22 1.15 1.12 1.07 1.06 1.00 0.97 0.99 1.06 1.06 1.03 1.08 1.13 1.18 1.33 1.34 1.37 1.44 1.48 1.59 1.73 2.05 2.10 1.90 1.90 1.96 1.97 2.12 1.95 1.77 1.75 1.51 1.81 2.22 2.53 2.61 2.61 2.67 2.55 2.31 1.96 1.71
1.25 1.18 1.15 1.07 1.01 0.97 0.96 0.94 0.94 0.99 1.01 1.01 1.07 1.14 1.19 1.31 1.39 1.45 1.46 1.54 1.62 1.77 1.96 2.10 2.04 2.04 2.10 2.15 2.18 2.10 1.97 1.83 1.66 1.59 2.04 2.45 2.76 2.81 2.94 3.03 2.78 2.33 1.96
1.16 1.15 1.14 1.07 1.03 0.95 0.90 0.91 0.92 0.93 1.02 1.03 1.02 1.03 1.08 1.18 1.29 1.29 1.21 1.31 1.51 1.76 1.83 2.02 2.07 2.11 2.10 2.17 2.08 1.86 1.81 1.78 1.64 1.54 1.74 2.09 2.77 3.08 3.11 3.17 3.07 2.59 2.15
1.23 1.19 1.13 1.08 1.01 0.81 0.86 0.88 0.88 0.94 1.00 1.01 1.01 1.00 0.96 0.94 0.92 0.94 0.98 1.06 1.23 1.53 1.88 2.12 2.08 2.06 1.95 1.89 1.91 1.86 1.88 1.90 1.84 1.55 1.51 1.75 2.30 3.08 3.30 3.23 3.14 2.54 2.01
1.24 1.17 1.11 1.10 1.02 0.91 0.88 0.80 0.83 0.93 1.02 1.08 1.13 1.09 0.87 0.75 0.86 0.91 0.96 1.00 1.13 1.32 1.66 2.05 2.14 1.93 1.88 1.85 1.92 1.93 1.99 2.02 1.87 1.57 1.64 1.85 2.17 2.85 3.00 2.96 2.88 2.25 1.79
1.23 1.24 1.20 1.16 1.13 0.99 0.89 0.78 0.80 0.87 0.99 1.02 1.03 1.06 1.07 0.98 0.91 1.00 1.07 1.14 1.26 1.38 1.49 1.61 1.95 1.79 1.60 1.66 1.79 1.86 1.99 2.03 1.91 1.70 1.74 2.01 2.20 2.65 2.62 2.66 2.56 2.08 1.71
1.19 1.17 1.15 1.15 1.20 1.12 0.96 0.83 0.77 0.81 0.92 0.93 0.89 0.88 0.88 0.91 1.01 1.18 1.29 1.50 1.62 1.72 1.60 1.75 1.91 1.87 1.73 1.69 1.63 1.78 2.08 2.15 2.01 1.83 1.82 2.09 2.20 2.29 2.38 2.43 2.16 1.95 1.66
1.18 1.14 1.12 1.14 1.13 1.03 0.86 0.73 0.70 0.73 0.87 0.92 0.95 0.91 0.83 0.78 0.93 1.11 1.35 1.67 1.83 1.90 1.75 1.85 2.11 2.14 1.97 1.98 1.98 1.93 2.16 2.25 2.15 2.05 1.80 1.91 2.07 2.07 2.25 2.17 1.98 1.82 1.73